This demonstration page uses our WeatherBlox Daily Observations layout. Learn more.

Left ArrowRight Arrow

44.8408, -93.29828

Hourly Observations for December 15, 2019

Temp ( °F °C ) Dew Point ( °F °C ) Humidity (%) Winds ( mph kmh ) Pressure ( in mb ) Visibility ( mi km ) Precip ( " mm )
12:53 am 00:53 Clear 0 -17.8 -7 -21.7 72 72 NW 7 11 30.11 1020 10 16 0.00 0.00
1:53 am 01:53 Cloudy 1 -17.2 -5 -20.6 75 75 NW 6 9 30.12 1020 10 16 0.00 0.00
2:53 am 02:53 Cloudy 1 -17.2 -5 -20.6 75 75 NW 5 7 30.14 1021 10 16 0.00 0.00
3:53 am 03:53 Mostly Cloudy 0 -17.8 -6 -21.1 76 76 NW 5 7 30.14 1021 10 16 0.00 0.00
4:53 am 04:53 Partly Cloudy -1 -18.3 -6 -21.1 79 79 NW 5 7 30.15 1021 10 16 0.00 0.00
5:53 am 05:53 Cloudy 0 -17.8 -5 -20.6 79 79 NW 3 6 30.16 1022 7 11 0.00 0.00
6:53 am 06:53 Cloudy 1 -17.2 -5 -20.6 75 75 NW 6 9 30.18 1022 10 16 0.00 0.00
7:53 am 07:53 Mostly Cloudy 2 -16.7 -5 -20.6 72 72 N 3 6 30.17 1022 10 16 0.00 0.00
8:53 am 08:53 Mostly Cloudy 2 -16.7 -4 -20 76 76 SSE 3 6 30.18 1022 10 16 0.00 0.00
9:53 am 09:53 Mostly Cloudy 3 -16.1 -3 -19.4 76 76 S 6 9 30.20 1023 10 16 0.00 0.00
10:53 am 10:53 Mostly Cloudy 6 -14.4 -1 -18.3 73 73 SW 6 9 30.20 1023 10 16 0.00 0.00
11:53 am 11:53 Cloudy 8 -13.3 -1 -18.3 66 66 WSW 6 9 30.19 1022 10 16 0.00 0.00
12:53 pm 12:53 Cloudy 8 -13.3 -1 -18.3 66 66 SW 3 6 30.15 1021 10 16 0.00 0.00
1:53 pm 13:53 Cloudy 10 -12.2 0 -17.8 63 63 W 3 6 30.14 1021 10 16 0.00 0.00
2:53 pm 14:53 Cloudy 11 -11.7 0 -17.8 61 61 SSW 3 6 30.14 1021 10 16 0.00 0.00
3:53 pm 15:53 Cloudy 12 -11.1 1 -17.2 61 61 S 7 11 30.13 1020 10 16 0.00 0.00
4:53 pm 16:53 Cloudy 12 -11.1 1 -17.2 61 61 S 8 13 30.14 1021 10 16 0.00 0.00
5:53 pm 17:53 Cloudy 11 -11.7 1 -17.2 64 64 S 8 13 30.14 1021 10 16 0.00 0.00
6:53 pm 18:53 Cloudy 11 -11.7 2 -16.7 67 67 SSE 7 11 30.13 1020 10 16 0.00 0.00
7:53 pm 19:53 Cloudy 12 -11.1 3 -16.1 67 67 S 7 11 30.14 1021 10 16 0.00 0.00
8:53 pm 20:53 Cloudy 14 -10 3 -16.1 61 61 SW 9 15 30.13 1020 10 16 0.00 0.00
9:53 pm 21:53 Cloudy 14 -10 5 -15 67 67 SSW 5 7 30.13 1020 10 16 0.00 0.00
10:53 pm 22:53 Cloudy 15 -9.4 7 -13.9 70 70 Calm 30.14 1021 10 16 0.00 0.00
11:49 pm 23:49 Cloudy 18 -8 9 -13 68 68 SW 5 7 30.16 1021 10 16 0.00 0.00
11:53 pm 23:53 Cloudy 17 -8.3 9 -12.8 70 70 SW 6 9 30.14 1021 10 16 0.00 0.00

Powered by AerisWeather